Hourly Weather Roundup
Issued by NWS Central Illinois

Home | Current Version | Previous Version | Text Only | Print | Product List | Glossary On
Versions: 1 2 3 4 5 6 7 8 9 10 11 12 13 14 15 16 17 18 19 20 21 22 23 24 25 26 27 28 29 30 31 32 33 34 35 36 37 38 39 40 41 42 43 44 45 46 47 48 49 50
000
NZUS43 KILX 151710
HWRILX

Area Weather Roundup
National Weather Service Lincoln IL
1100 AM CST FRI DEC 15 2017

NOTE:  "FAIR" indicates few or no clouds below 12,000 feet, with
       no sigificant weather and/or obstructions to visibility.


CITY           SKY/WX    TMP DP  RH WIND       PRES   REMARKS
Bloomington    PTSUNNY   32  17  54 W16       30.03F WCI  21
Champaign      PTSUNNY   33  21  61 W21       30.04S WCI  21
Danville       CLOUDY    32  19  60 W20G25    29.99F WCI  20
Decatur        MOSUNNY   33  20  58 NW17G23   30.06S WCI  22
Effingham      CLOUDY    35  26  70 W10       30.10F WCI  27
Flora          CLOUDY    37  25  61 W12       30.11S WCI  30
Galesburg      PTSUNNY   34  22  63 SW10      30.03F WCI  26
Jacksonville   MOSUNNY   36  20  51 NW14G20   30.08S WCI  27
Lacon          CLOUDY    32  18  56 W12G18    30.01F WCI  23
Lawrenceville  CLOUDY    35  22  58 SW15      30.10F WCI  25
Litchfield     CLOUDY    36  25  65 W13       30.08S WCI  27
$$


CITY           SKY/WX    TMP DP  RH WIND       PRES   REMARKS
Lincoln        CLOUDY    34  21  60 W12G18    30.06F WCI  25
Macomb         MOSUNNY   36  23  59 W12       30.07F WCI  27
Mattoon        CLOUDY    31  24  75 W15       30.06S WCI  20
Mt Carmel AP   CLOUDY    34  21  60 SW12      30.11S WCI  25
Olney-Noble AP CLOUDY    35  21  57 SW8       30.11F WCI  28
Paris AP       CLOUDY    31  23  73 W15       30.05F WCI  20
Peoria         MOSUNNY   34  18  52 NW12G17   30.04F WCI  25
Pontiac        CLOUDY    32  17  54 W18G26    30.01S WCI  21
Rantoul        CLOUDY    33  19  58 NW22G28   30.02S WCI  20
Robinson       CLOUDY    32  22  67 SW13      30.10S WCI  23
Springfield    MOSUNNY   36  21  54 W14       30.08S WCI  27
Taylorville    PTSUNNY   34  22  63 W12       30.08S WCI  25
$$

...REGIONAL REPORTS...


CITY           SKY/WX    TMP DP  RH WIND       PRES   REMARKS
Chicago O`Hare PTSUNNY   29  13  51 NW20G31   29.92S WCI  16
Kankakee       PTSUNNY   30  15  53 NW20G29   29.99S WCI  18
Moline         CLOUDY    33  21  61 SW12      30.00F WCI  24
Mount Sterling MOSUNNY   36  19  51 W12G20    30.06F WCI  27
Mount Vernon   CLOUDY    38  25  59 SW12      30.12F WCI  30
Pittsfield     SUNNY     37  21  52 W12       30.09S WCI  30
Quincy         CLOUDY    36  20  52 W13       30.07S WCI  27
Rockford       CLOUDY    29  17  61 W16G22    29.96S WCI  17
$$


CITY           SKY/WX    TMP DP  RH WIND       PRES   REMARKS
Burlington     CLOUDY    33  23  66 SW13      30.03F WCI  24
Cedar Rapids   CLOUDY    31  24  75 SW14      29.95F WCI  21
Des Moines     CLOUDY    39  24  55 W20       29.98F WCI  29
Kirksville     CLOUDY    38  27  64 SW10      30.06F WCI  31
Ottumwa        CLOUDY    35  23  61 SW14      30.00F WCI  26
St Louis       PTSUNNY   38  25  59 NW12G22   30.12R WCI  30
$$


CITY           SKY/WX    TMP DP  RH WIND       PRES   REMARKS
Terre Haute    CLOUDY    30  20  66 W13       30.06F WCI  20
Evansville     CLOUDY    36  23  59 SW14      30.14F WCI  27
Indianapolis   CLOUDY    29  19  66 SW15      30.01F WCI  18
Lafayette      CLOUDY    29  20  69 W14G24    29.99F WCI  18
Madison        FLURRIES  26  15  63 W12G23    29.89F WCI  16
Milwaukee      MOSUNNY   27  12  53 W20G26    29.88S WCI  13
$$





USA.gov is the U.S. government's official web portal to all federal, state and local government web resources and services.